Tracking 21076 objects as of 10-Aug-2020
HD Live streaming from Space Station
objects crossing your sky now
Track the most recent launched group of Starlink satellites

TITAN 3C TRANSTAGE R/B

Track TITAN 3C TRANSTAGE R/B now!


NORAD ID: 12371
Int'l Code: 1981-025C
Perigee: 35,284.9 km
Apogee: 35,709.2 km
Inclination: 11.2 °
Period: 1,421.0 minutes
Semi major axis: 41868 km
RCS: Unknown
Launch date: March 16, 1981
Source: United States (US)
Launch site: AIR FORCE EASTERN TEST RANGE (AFETR)

Note: This is a ROCKET BODY
aabbcc
Your satellite tracking list
Your tracking list is empty




NASA's NSSDC Master Catalog

Two Line Element Set (TLE):
1 12371U 81025C   20221.75484354 -.00000315 +00000-0 +00000-0 0  9997
2 12371 011.2329 318.9085 0050675 268.2829 091.2102 01.01339475005371
Source of the keplerian elements: McCants